sat.trackr.live / text

‹ back to catalog

CONNECTA IOT-11

NORAD 64557 · 2025-135AF

PAYLOAD ACTIVE UNKNOWN

§ Identity

Operator
Country
TURK
Launch date
2025-06-23
Launch site
AFWTR
Launch vehicle
Mass (kg)
RCS (m²)

External: N2YO · Heavens-Above · Gunter

§ Orbital elements

Epoch: 2026-05-24T19:23:27.496032Z

Period
94.72 min
Inclination
97.4691°
Eccentricity
0.0002975
Mean motion
15.20272349 rev/d
Perigee alt
503.0 km
Apogee alt
507.1 km
Semi-major
6,883.2 km
B*
1.4547e-4
RAAN
260.3308°
Arg perigee
88.3915°
Mean anomaly
271.7660°
Rev number
5,131

§ Raw data

CONNECTA IOT-111 64557U 25135AF  26144.80795713  .00003089  00000+0  14547-3 0  99932 64557  97.4691 260.3308 0002975  88.3915 271.7660 15.20272349 51318

JSON: /api/v1/satellites/64557 · /tle

For live sub-satellite position, see the globe view (requires WebGL).

§ Visibility from observer

Set your observer location to see the next 7 days of passes ≥ 10°. The values pass through the URL so the page stays shareable.

No JS? Fill the form by hand. The geolocation button needs JavaScript.

§ Radio — SatNOGS DB

ModeDescriptionDownlinkUplink
GMSK Mode U - GMSK 4k8 AX.25 TLM 401.530 MHz
GMSK Mode S - GMSK 4k8 AX.25 TLM (inactive) 2.240 GHz

2 transmitters · refreshed weekly from db.satnogs.org